Location: Bannatyne
(13.0833°N, 59.5333°W)
Time: 14:38:53
(UTC+00:00)

Explorer 7 - Pass Details

Date: 02 February 2020
Orbit: 485 x 679 km, 50.3° (Epoch: 28 February)

Event Time Altitude Azimuth Distance (km) Brightness Sun altitude
Rises 07:27:15 0° 328° (NNW) 2,590 - -42.8°
Reaches altitude 10° 07:29:25 10° 332° (NNW) 1,729 - -42.2°
Maximum altitude 07:33:16 56° 51° (NE) 634 - -41.3°
Drops below altitude 10° 07:37:21 10° 130° (SE) 1,834 - -40.3°
Exits shadow 07:38:27 - 133° (SE) 2,267 10.5 -40.1°
Sets 07:39:42 0° 134° (SE) 2,765 11.0 -39.8°
